Abha, Saudi Arabia

5:39 AM +03 on July 24, 2019 (GMT +0300)
Abha

Weather History for OEAB - May, 2019

Change the Weather History Date:

Sunday, May 12, 2019

  Actual Average Record
Temperature  
Mean Temperature 74 °F -  
Max Temperature 84 °F 82 °F 87 °F (2018)
Min Temperature 63 °F 59 °F 53 °F (2017)
Cooling Degree Days 8    
Growing Degree Days 24 (Base 50)    
Moisture  
Dew Point 47 °F    
Average Humidity 43    
Maximum Humidity 72    
Minimum Humidity 22    
Precipitation  
Precipitation 0.00 in - - ()
Sea Level Pressure  
Sea Level Pressure 30.27 in    
Wind  
Wind Speed 7 mph ()    
Max Wind Speed 17 mph    
Max Gust Speed -    
Visibility 2.8 miles    
Events      
Averages and records for this station are not official NWS values.
T = Trace of Precipitation, MM = Missing Value Source: Averaged Metar Reports

Daily Weather History Graph

Daily Weather History Graph

Search for Another Location

Airport or City:

Astronomy

May. 12, 2019 Rise Set
Actual Time 5:37 AM +03 6:34 PM +03
Civil Twilight 5:14 AM +03 6:57 PM +03
Nautical Twilight 4:46 AM +03 7:24 PM +03
Astronomical Twilight 4:18 AM +03 7:52 PM +03
Moon 12:25 PM +03 (5/12) 12:43 AM +03 (5/12)
Length of Visible Light 13h 43m
Length of Day
12h 56m
First Quarter, 54% of the Moon is Illuminated
May 12
First Quarter
May 19
Full
May 26
Last Quarter
Jun 3
New
Jun 10
First Quarter

Hourly Weather History & Observations

Time (+03) Temp. Dew Point Humidity Pressure Visibility Wind Dir Wind Speed Gust Speed Precip Events Conditions
12:00 AM 68.0 °F 51.8 °F 56% 30.27 in 6.2 mi Calm Calm - N/A   Scattered Clouds
2:00 AM 68.0 °F 57.2 °F 68% 30.24 in 6.2 mi NW 5.8 mph - N/A   Scattered Clouds
3:00 AM 68.0 °F 50.0 °F 52% 30.24 in 6.2 mi NW 8.1 mph - N/A   Scattered Clouds
4:00 AM 68.0 °F 48.2 °F 49% 30.24 in - NNW 8.1 mph - N/A   Clear
5:00 AM 64.4 °F 53.6 °F 68% 30.27 in 2.5 mi NNW 11.5 mph - N/A   Haze
6:00 AM 62.6 °F 53.6 °F 72% 30.30 in 2.5 mi North 11.5 mph - N/A   Haze
7:00 AM 64.4 °F 53.6 °F 68% 30.33 in 1.9 mi NNW 11.5 mph - N/A   Haze
8:00 AM 66.2 °F 53.6 °F 64% 30.33 in 1.2 mi NNW 11.5 mph - N/A   Haze
9:00 AM 69 °F 52 °F 44%  in 1 mi North 11.5 mph - -   Haze
9:00 AM 68.0 °F 51.8 °F 56% 30.33 in 1.1 mi North 11.5 mph - N/A   Haze
10:00 AM 71.6 °F 46.4 °F 41% 30.33 in 1.2 mi NE 8.1 mph - N/A   Partly Cloudy
11:00 AM 73.4 °F 48.2 °F 41% 30.30 in 1.2 mi ENE 6.9 mph - N/A   Partly Cloudy
12:00 PM 78.8 °F 41.0 °F 26% 30.30 in 1.9 mi East 8.1 mph - N/A   Unknown
1:00 PM 84.2 °F 41.0 °F 22% 30.27 in 1.9 mi North 6.9 mph - N/A   Partly Cloudy
2:00 PM 80.6 °F 39.2 °F 23% 30.24 in 2.2 mi SSW 6.9 mph - N/A   Scattered Clouds
3:00 PM 80.6 °F 39.2 °F 23% 30.21 in 2.5 mi WNW 4.6 mph - N/A   Scattered Clouds
4:00 PM 78.8 °F 37.4 °F 23% 30.21 in 2.5 mi WNW 5.8 mph - N/A   Scattered Clouds
6:00 PM 77.0 °F 39.2 °F 26% 30.21 in 3.1 mi NNE 15.0 mph - N/A   Scattered Clouds
7:00 PM 75.2 °F 39.2 °F 27% 30.24 in 5.0 mi NNE 13.8 mph - N/A   Unknown
8:00 PM 75.2 °F 44.6 °F 34% 30.27 in - NNE 17.3 mph - N/A   Clear
9:00 PM 73.4 °F 46.4 °F 38% 30.27 in - NNE 12.7 mph - N/A   Clear
10:00 PM 71.6 °F 46.4 °F 41% 30.27 in - NE 9.2 mph - N/A   Clear
11:00 PM 69.8 °F 41.0 °F 35% 30.30 in - ENE 8.1 mph - N/A   Clear